Date String (YYYY-MM-DD hh:mm:ss) UTC,Instrument flags,absolute air pressure of the measurement (hPa),sample flow rate (lpm),inlet stack bypass flow (lpm),air temperature of the measurement (°C),ambient temperature measured by the external sensor (°C),aerosol sample conditioner tube jacket temperature (°C),OPC LED temperature (°C),internal box temperature (°C),relative humidity of the measurement (%),span deviation,mass concentration of particles derived from Lorenz-Mie calculation of OPC scattering (μg/m³),mass concentration of particles derived from Lorenz-Mie calculation of OPC scattering (μg/m³),mass concentration of particles derived from Lorenz-Mie calculation of OPC scattering (μg/m³)
DateTimeUTC,F1_M11,P_M11,Q1_M11,Q2_M11,T1_M11,T2_M11,T3_M11,T4_M11,T5_M11,U1_M11,ZSPAN_M11,X2_M11,X0_M11,X1_M11
2023-06-21 03:00:00,SystemResetWarning,0830.0,4.99,000.00,029.6,026.6,000.0,038.0,031.2,22.9,0000.0,0005.85,0022.41,0004.00
2023-06-21 03:01:00,SystemResetWarning,0830.0,5.00,000.00,029.6,025.2,000.0,037.9,031.2,22.9,0000.0,0005.82,0022.58,0004.00
2023-06-21 03:02:00,SystemResetWarning,0830.0,5.01,000.00,029.5,025.3,000.0,037.9,031.0,23.2,0000.0,0005.77,0022.40,0004.01
2023-06-21 03:03:00,SystemResetWarning,0830.0,5.00,000.00,029.4,025.6,000.0,037.9,030.8,23.4,0000.0,0005.77,0022.28,0004.00
2023-06-21 03:04:00,SystemResetWarning,0830.0,4.99,000.00,029.4,026.1,000.0,037.9,030.8,23.1,0000.0,0005.75,0019.71,0004.00
2023-06-21 03:05:00,SystemResetWarning,0830.1,5.01,000.00,029.4,026.5,000.0,037.9,030.8,23.0,0000.0,0005.76,0018.52,0004.00
2023-06-21 03:06:00,SystemResetWarning,0830.1,5.01,000.00,029.4,026.9,000.0,038.0,030.9,23.4,0000.0,0005.74,0018.97,0003.99
2023-06-21 03:07:00,SystemResetWarning,0830.1,4.99,000.00,029.5,027.2,000.0,038.0,031.0,24.6,0000.0,0005.71,0020.65,0004.00
2023-06-21 03:08:00,SystemResetWarning,0830.1,5.00,000.00,029.5,027.5,000.0,038.0,031.1,23.8,0000.0,0005.74,0020.97,0004.01
2023-06-21 03:09:00,SystemResetWarning,0830.1,5.00,000.00,029.5,027.8,000.0,038.0,031.1,23.5,0000.0,0005.78,0021.16,0004.03
2023-06-21 03:10:00,SystemResetWarning,0830.1,5.00,000.00,029.6,028.0,000.0,038.0,031.2,24.8,0000.0,0005.86,0021.49,0004.04
2023-06-21 03:11:00,SystemResetWarning,0830.1,4.98,000.00,029.6,027.0,000.0,038.0,031.2,24.3,0000.0,0005.84,0023.04,0004.04
2023-06-21 03:12:00,SystemResetWarning,0830.1,4.99,000.00,029.6,025.3,000.0,037.9,031.1,24.1,0000.0,0005.86,0023.49,0004.05
2023-06-21 03:13:00,SystemResetWarning,0830.1,5.01,000.00,029.5,025.1,000.0,037.9,031.0,23.9,0000.0,0005.88,0024.11,0004.06
2023-06-21 03:14:00,SystemResetWarning,0830.2,5.00,000.00,029.4,025.4,000.0,037.9,030.8,24.0,0000.0,0005.92,0027.12,0004.07
2023-06-21 03:15:00,SystemResetWarning,0830.2,4.99,000.00,029.4,025.9,000.0,037.9,030.8,24.1,0000.0,0005.95,0027.21,0004.08
2023-06-21 03:16:00,SystemResetWarning,0830.2,5.01,000.00,029.4,026.3,000.0,037.9,030.8,24.7,0000.0,0005.93,0027.14,0004.09
2023-06-21 03:17:00,SystemResetWarning,0830.2,5.01,000.00,029.4,026.7,000.0,037.9,030.9,24.5,0000.0,0005.98,0026.88,0004.12
2023-06-21 03:18:00,SystemResetWarning,0830.2,5.00,000.00,029.4,027.0,000.0,037.9,030.9,24.5,0000.0,0006.07,0026.49,0004.14
2023-06-21 03:19:00,SystemResetWarning,0830.2,5.00,000.00,029.4,027.3,000.0,037.9,031.0,24.6,0000.0,0006.11,0028.24,0004.15
2023-06-21 03:20:00,SystemResetWarning,0830.3,5.00,000.00,029.5,027.6,000.0,038.0,031.0,24.6,0000.0,0006.17,0029.61,0004.14
2023-06-21 03:21:00,SystemResetWarning,0830.2,5.00,000.00,029.5,027.8,000.0,038.0,031.1,24.7,0000.0,0006.13,0028.01,0004.14
2023-06-21 03:22:00,SystemResetWarning,0830.3,5.00,000.00,029.5,028.0,000.0,038.0,031.2,24.4,0000.0,0006.13,0025.66,0004.15
2023-06-21 03:23:00,SystemResetWarning,0830.3,5.00,000.00,029.6,028.1,000.0,038.0,031.2,24.5,0000.0,0006.09,0025.09,0004.15
2023-06-21 03:24:00,SystemResetWarning,0830.3,4.98,000.00,029.6,026.6,000.0,038.0,031.2,24.5,0000.0,0006.07,0024.96,0004.16
2023-06-21 03:25:00,SystemResetWarning,0830.3,5.01,000.00,029.6,025.1,000.0,037.9,031.2,24.4,0000.0,0006.02,0022.43,0004.16
2023-06-21 03:26:00,SystemResetWarning,0830.3,5.01,000.00,029.5,025.1,000.0,037.9,031.0,24.4,0000.0,0006.00,0022.75,0004.16
2023-06-21 03:27:00,SystemResetWarning,0830.3,5.00,000.00,029.4,025.4,000.0,037.9,030.7,24.4,0000.0,0005.97,0022.11,0004.16
2023-06-21 03:28:00,SystemResetWarning,0830.3,4.99,000.00,029.4,025.8,000.0,037.9,030.7,24.1,0000.0,0005.95,0022.46,0004.16
2023-06-21 03:29:00,SystemResetWarning,0830.4,5.00,000.00,029.4,026.3,000.0,037.9,030.8,23.7,0000.0,0005.90,0021.83,0004.16
2023-06-21 03:30:00,SystemResetWarning,0830.4,5.00,000.00,029.4,026.7,000.0,037.9,030.8,23.7,0000.0,0005.91,0020.09,0004.18
2023-06-21 03:31:00,SystemResetWarning,0830.4,5.00,000.00,029.4,027.1,000.0,037.9,030.9,23.3,0000.0,0005.89,0018.26,0004.19
2023-06-21 03:32:00,SystemResetWarning,0830.4,4.99,000.00,029.4,027.3,000.0,038.0,031.0,23.7,0000.0,0005.88,0018.67,0004.20
2023-06-21 03:33:00,SystemResetWarning,0830.4,5.01,000.00,029.5,027.6,000.0,038.0,031.0,23.6,0000.0,0005.90,0019.26,0004.20
2023-06-21 03:34:00,SystemResetWarning,0830.4,5.01,000.00,029.5,027.8,000.0,038.0,031.0,23.2,0000.0,0005.94,0019.36,0004.20
2023-06-21 03:35:00,SystemResetWarning,0830.5,5.01,000.00,029.5,028.0,000.0,038.0,031.1,23.0,0000.0,0005.94,0018.92,0004.20
2023-06-21 03:36:00,SystemResetWarning,0830.5,4.99,000.00,029.6,028.0,000.0,038.0,031.2,23.2,0000.0,0005.91,0018.18,0004.20
2023-06-21 03:37:00,SystemResetWarning,0830.6,4.98,000.00,029.6,026.2,000.0,038.0,031.1,22.9,0000.0,0005.84,0017.23,0004.20
2023-06-21 03:38:00,SystemResetWarning,0830.5,5.01,000.00,029.5,025.0,000.0,037.9,031.1,22.8,0000.0,0005.87,0017.21,0004.19
2023-06-21 03:39:00,SystemResetWarning,0830.4,5.00,000.00,029.5,025.1,000.0,037.9,030.9,23.3,0000.0,0005.95,0016.55,0004.18
2023-06-21 03:40:00,SystemResetWarning,0830.5,5.01,000.00,029.4,025.5,000.0,037.9,030.7,23.5,0000.0,0005.93,0015.90,0004.18
2023-06-21 03:41:00,SystemResetWarning,0830.4,4.99,000.00,029.4,025.9,000.0,037.9,030.7,23.4,0000.0,0005.89,0015.94,0004.16
2023-06-21 03:42:00,SystemResetWarning,0830.4,5.00,000.00,029.4,026.4,000.0,037.9,030.7,23.4,0000.0,0005.89,0016.15,0004.16
2023-06-21 03:43:00,SystemResetWarning,0830.6,5.00,000.00,029.4,026.8,000.0,037.9,030.8,23.8,0000.0,0005.92,0016.01,0004.17
2023-06-21 03:44:00,SystemResetWarning,0830.5,5.00,000.00,029.4,027.1,000.0,037.9,030.9,24.1,0000.0,0005.92,0016.06,0004.17
2023-06-21 03:45:00,SystemResetWarning,0830.7,5.00,000.00,029.4,027.4,000.0,037.9,030.9,24.2,0000.0,0005.94,0016.40,0004.18
2023-06-21 03:46:00,SystemResetWarning,0830.5,5.00,000.00,029.4,027.6,000.0,038.0,031.0,24.0,0000.0,0006.05,0019.30,0004.19
2023-06-21 03:47:00,SystemResetWarning,0830.5,5.00,000.00,029.5,027.8,000.0,038.0,031.0,24.0,0000.0,0006.12,0020.13,0004.21
2023-06-21 03:48:00,SystemResetWarning,0830.6,5.00,000.00,029.5,028.0,000.0,038.0,031.1,24.1,0000.0,0006.17,0021.13,0004.22
2023-06-21 03:49:00,SystemResetWarning,0830.6,5.00,000.00,029.5,028.1,000.0,038.0,031.2,24.0,0000.0,0006.18,0022.52,0004.23
2023-06-21 03:50:00,SystemResetWarning,0830.6,5.00,000.00,029.6,028.2,000.0,038.0,031.2,23.9,0000.0,0006.15,0022.92,0004.25
2023-06-21 03:51:00,SystemResetWarning,0830.6,4.98,000.00,029.6,027.1,000.0,038.0,031.3,24.0,0000.0,0006.18,0023.89,0004.27
2023-06-21 03:52:00,SystemResetWarning,0830.6,5.01,000.00,029.6,025.2,000.0,038.0,031.2,24.0,0000.0,0006.23,0024.31,0004.28
2023-06-21 03:53:00,SystemResetWarning,0830.6,5.01,000.00,029.6,025.0,000.0,037.9,031.1,24.1,0000.0,0006.21,0024.31,0004.28
2023-06-21 03:54:00,SystemResetWarning,0830.6,5.01,000.00,029.5,025.3,000.0,037.9,030.8,24.0,0000.0,0006.14,0023.91,0004.28
2023-06-21 03:55:00,SystemResetWarning,0830.5,5.00,000.00,029.4,025.7,000.0,037.9,030.8,24.0,0000.0,0006.12,0023.06,0004.29
2023-06-21 03:56:00,SystemResetWarning,0830.5,5.00,000.00,029.4,026.1,000.0,037.9,030.8,24.3,0000.0,0006.09,0021.95,0004.30
2023-06-21 03:57:00,SystemResetWarning,0830.5,4.99,000.00,029.4,026.6,000.0,037.9,030.8,24.4,0000.0,0006.03,0020.10,0004.30
2023-06-21 03:58:00,SystemResetWarning,0830.6,5.00,000.00,029.4,026.9,000.0,038.0,030.8,24.1,0000.0,0005.99,0018.48,0004.30
2023-06-21 03:59:00,SystemResetWarning,0830.6,4.99,000.00,029.4,027.2,000.0,038.0,030.9,24.2,0000.0,0006.00,0017.87,0004.31
